Ellsworth AFB, SD

8:06 PM MST on November 23, 2017 (GMT -0700)
Ellsworth Air Force Base

Weather History for KRCA - April, 2013

Change the Weather History Date:

Wednesday, April 24, 2013

  Actual Average Record
Temperature  
Mean Temperature 34 °F -  
Max Temperature 44 °F 58 °F 85 °F (2012)
Min Temperature 25 °F 36 °F 25 °F (2013)
Degree Days  
Heating Degree Days 31    
Moisture  
Dew Point 25 °F    
Average Humidity 65    
Maximum Humidity 87    
Minimum Humidity 48    
Precipitation  
Precipitation 0.00 in - - ()
Sea Level Pressure  
Sea Level Pressure 30.14 in    
Wind  
Wind Speed 16 mph (NW)    
Max Wind Speed 33 mph    
Max Gust Speed 43 mph    
Visibility 9 miles    
Events Snow    
Averages and records for this station are not official NWS values.
T = Trace of Precipitation, MM = Missing Value Source: NWS Daily Summary

Daily Weather History Graph

Daily Weather History Graph

Search for Another Location

Airport or City:

Trip Planner

Search our weather history database for the weather conditions in past years. The results will help you decide how hot, cold, wet, or windy it might be!

Date:

Astronomy

Apr. 24, 2013 Rise Set
Actual Time 5:53 AM MDT 7:47 PM MDT
Civil Twilight 5:22 AM MDT 8:19 PM MDT
Nautical Twilight 4:44 AM MDT 8:57 PM MDT
Astronomical Twilight 4:03 AM MDT 9:38 PM MDT
Moon 6:52 PM MDT 5:01 AM MDT
Length of Visible Light 14h 56m
Length of Day
13h 54m
Waxing Gibbous, 98% of the Moon is Illuminated
Apr 24
Waxing Gibbous
Apr 25
Full
May 2
Last Quarter
May 9
New
May 17
First Quarter

Hourly Weather History & Observations

Time (MDT) Temp. Windchill Dew Point Humidity Pressure Visibility Wind Dir Wind Speed Gust Speed Precip Events Conditions
12:58 AM 30.4 °F 22.2 °F 18.3 °F 61% 30.15 in 10.0 mi WSW 9.2 mph - N/A   Clear
1:58 AM 26.2 °F 16.4 °F 17.6 °F 70% 30.15 in 10.0 mi WNW 10.4 mph - N/A   Scattered Clouds
2:58 AM 28.2 °F 19.5 °F 18.3 °F 66% 30.14 in 10.0 mi West 9.2 mph - N/A   Partly Cloudy
3:58 AM 25.3 °F 17.6 °F 16.7 °F 70% 30.12 in 10.0 mi West 6.9 mph - N/A   Clear
4:58 AM 27.5 °F 21.1 °F 16.5 °F 63% 30.11 in 10.0 mi West 5.8 mph - N/A   Clear
5:58 AM 28.9 °F 22.8 °F 18.9 °F 66% 30.11 in 10.0 mi West 5.8 mph - N/A   Clear
6:58 AM 31.8 °F 22.3 °F 22.6 °F 69% 30.12 in 10.0 mi NW 12.7 mph - N/A   Clear
7:58 AM 35.8 °F 26.1 °F 26.4 °F 69% 30.13 in 10.0 mi NW 16.1 mph - N/A   Clear
8:58 AM 36.9 °F 24.9 °F 26.2 °F 65% 30.13 in 10.0 mi NNW 26.5 mph 32.2 mph N/A   Clear
9:58 AM 37.0 °F 24.5 °F 26.2 °F 65% 30.13 in 10.0 mi NNW 29.9 mph 35.7 mph N/A   Mostly Cloudy
10:58 AM 38.7 °F 27.1 °F 26.4 °F 61% 30.17 in 10.0 mi NW 27.6 mph 33.4 mph N/A   Scattered Clouds
11:02 AM 39.2 °F 27.6 °F 26.6 °F 61% 30.08 in 3.0 mi NW 28.8 mph 38.0 mph N/A   Unknown
11:04 AM 37.4 °F 25.9 °F 26.6 °F 65% 30.07 in 3.0 mi NNW 25.3 mph 38.0 mph N/A Snow Light Snow
11:17 AM 35.6 °F 23.0 °F 28.4 °F 75% 30.08 in 10.0 mi NNW 27.6 mph 31.1 mph N/A   Mostly Cloudy
11:42 AM 37.4 °F 24.4 °F 26.6 °F 65% 30.08 in 4.0 mi NNW 33.4 mph 42.6 mph N/A Snow Light Snow
11:43 AM 37.4 °F 24.6 °F 26.6 °F 65% 30.09 in 3.0 mi NNW 32.2 mph 42.6 mph N/A Snow Light Snow
11:49 AM 37.4 °F 25.6 °F 28.4 °F 70% 30.09 in 2.0 mi NNW 26.5 mph 42.6 mph N/A Snow Light Snow
11:54 AM 35.6 °F 24.8 °F 32.0 °F 87% 30.09 in 3.0 mi NW 19.6 mph 40.3 mph N/A Snow Light Snow
11:58 AM 34.9 °F 22.7 °F 31.1 °F 86% 30.19 in 6.0 mi NW 24.2 mph - 0.00 in Snow Light Snow
12:04 PM 35.6 °F 23.7 °F 30.2 °F 81% 30.09 in 10.0 mi NNW 24.2 mph 31.1 mph N/A   Mostly Cloudy
12:58 PM 38.1 °F 27.1 °F 29.3 °F 71% 30.17 in 10.0 mi NNW 24.2 mph - 0.00 in   Mostly Cloudy
1:58 PM 40.5 °F 28.6 °F 24.8 °F 54% 30.18 in 10.0 mi NW 33.4 mph 35.7 mph N/A   Scattered Clouds
2:58 PM 41.9 °F 32.1 °F 26.8 °F 55% 30.19 in 10.0 mi NW 24.2 mph - N/A   Clear
3:58 PM 43.2 °F 34.7 °F 25.9 °F 51% 30.19 in 10.0 mi NW 19.6 mph 29.9 mph N/A   Scattered Clouds
4:58 PM 43.7 °F 35.0 °F 25.0 °F 48% 30.17 in 10.0 mi NW 21.9 mph - N/A   Scattered Clouds
5:58 PM 43.5 °F 35.0 °F 24.8 °F 48% 30.17 in 10.0 mi NW 20.7 mph - N/A   Clear
6:58 PM 41.9 °F 34.6 °F 24.8 °F 51% 30.16 in 10.0 mi NW 13.8 mph - N/A   Clear
7:58 PM 39.2 °F 32.5 °F 24.8 °F 56% 30.16 in 10.0 mi NNW 10.4 mph - N/A   Clear
8:58 PM 34.3 °F 30.2 °F 25.0 °F 69% 30.19 in 10.0 mi West 4.6 mph - N/A   Partly Cloudy
9:58 PM 34.9 °F 29.9 °F 24.6 °F 66% 30.19 in 10.0 mi SW 5.8 mph - N/A   Clear
10:58 PM 34.7 °F 28.1 °F 23.9 °F 65% 30.16 in 10.0 mi SSW 8.1 mph - N/A   Clear
11:58 PM 34.2 °F 27.5 °F 23.4 °F 65% 30.15 in 10.0 mi South 8.1 mph - N/A   Clear